Location: ?????????
(41.2286°N, 23.0068°E)
Time: 08:50:31
(UTC+00:00)

ADEOS Rocket - Pass Details

Date: 08 November 2025
Orbit: 858 x 1304 km, 98.7° (Epoch: 04 December)

Event Time Altitude Azimuth Distance (km) Brightness Sun altitude
Rises 02:32:24 0° 7° (N) 3,792 6.2 -29.4°
Reaches altitude 10° 02:34:53 10° 1° (N) 2,896 5.5 -28.9°
Enters shadow 02:38:46 34° 337° (NNW) 1,739 4.1 -28.2°
